Location: Castrillo de Sepúlveda
(41.3379°N, 3.7894°W)
Time: 23:54:27
(UTC+00:00)

Daily predictions for brighter satellites

Satellite Brightness Start Highest point End
(mag) Time Altitude Azimuth Time Altitude Azimuth Time Altitude Azimuth
Meteor 1-21 Rocket 4.2 17:22:34 10° N 17:28:09 83° E 17:33:40 10° S
CORIOLIS 4.2 17:22:52 10° SSE 17:28:12 67° ENE 17:33:32 10° N
Cosmos 1331 Rocket 4.2 17:23:12 10° NNW 17:28:23 79° WSW 17:33:30 10° SSE
MOS 1 Rocket 4.1 17:28:19 10° ESE 17:31:42 23° ENE 17:35:06 10° NNE
Cosmos 921 Rocket 4.2 17:31:00 10° SSE 17:34:16 22° E 17:37:34 10° NE
YAOGAN 1 4.1 17:32:54 10° E 17:35:15 15° ENE 17:37:35 10° NNE
Cosmos 1818 4.0 17:30:00 10° NW 17:35:25 71° WSW 17:40:48 10° SSE
Cosmos 1025 Rocket 3.6 17:32:20 10° N 17:36:20 35° ENE 17:40:18 10° SE
Cosmos 2263 Rocket 4.4 17:32:18 10° W 17:36:22 20° NW 17:40:28 10° N
SAR-Lupe-1 4.1 17:33:58 10° SSE 17:37:26 59° ENE 17:40:58 10° N
Cosmos 2100 Rocket 4.0 17:31:45 10° S 17:37:58 75° E 17:44:08 10° N
SPOT 1/Viking Rocket 4.4 17:36:40 10° ESE 17:40:55 27° ENE 17:45:11 10° N
ATLAS CENTAUR R/B 2.3 17:39:34 10° SSE 17:42:14 21° ESE 17:44:48 11° ENE
Cosmos 1844 Rocket 2.8 17:37:36 10° SSW 17:43:09 80° WNW 17:48:46 10° NNE
ARIANE 5 R/B 2.4 17:38:52 10° SSE 17:43:50 73° ENE 17:48:48 10° N
ARIANE 6 FM1 Upper Stage 2.7 17:43:26 10° SW 17:47:28 77° NW 17:51:27 10° NE
Cosmos 1378 Rocket 3.6 17:44:06 10° N 17:48:24 82° W 17:52:44 10° S
SJ-12 3.6 17:46:15 10° SSE 17:50:03 74° ENE 17:53:52 10° N
Cosmos 1782 Rocket 4.5 17:50:54 10° SSE 17:54:38 27° E 17:58:24 10° NNE
Cosmos 1833 Rocket 4.1 17:50:52 10° N 17:54:42 18° NE 17:57:24 13° E
CZ-2D R/B 4.1 17:52:03 10° SE 17:55:34 31° ENE 17:59:11 10° N
SAR-Lupe-4 4.1 17:53:27 10° S 17:57:00 62° WSW 18:00:33 10° NNW
Cosmos 1459 Rocket 4.1 17:54:03 10° S 18:00:14 82° W 18:06:35 10° N
Cosmos 1864 Rocket 4.4 17:54:28 10° S 18:00:33 75° E 18:06:43 10° N
Cosmos 1867 3.7 17:55:24 10° SW 18:00:50 82° WNW 18:06:20 10° NNE
Cosmos 1606 2.6 18:01:12 10° SSW 18:03:51 53° W 18:06:33 10° N
SKYMED 2 3.8 17:59:40 10° NNE 18:03:53 47° E 18:08:03 10° S
Cosmos 1603 3.7 17:59:01 10° NNW 18:04:44 89° WSW 18:10:22 10° SSE
SMAP 3.9 18:01:04 10° S 18:05:37 56° W 18:10:13 10° NNW
NOSS 3-4 (A) 4.1 17:59:45 10° NNW 18:06:25 51° NE 18:14:12 10° SE
NOSS 3-4 (C) 4.1 17:59:50 10° NNW 18:06:30 51° NE 18:14:14 10° ESE
COSMO-SKYMED 1 3.0 18:04:26 10° NNE 18:08:15 36° E 18:12:03 10° SSE
Cosmos 1725 Rocket 3.9 18:03:28 10° S 18:09:41 80° E 18:15:59 10° N
Iridium 4 Rocket 4.1 18:04:22 10° SSW 18:09:55 65° W 18:15:05 10° N
Cosmos 1908 Rocket 3.5 18:05:57 10° S 18:10:20 84° E 18:14:47 10° N
ATLAS 5 CENTAUR R/B 3.7 18:10:13 10° NNE 18:11:09 11° NE 18:11:09 11° NE
SL-16 R/B 4.5 18:06:36 10° N 18:11:50 29° WNW 18:17:02 10° WSW
Tiangong -2.2 18:10:52 10° W 18:14:03 85° N 18:15:32 29° E
SWARM A 4.4 18:11:04 10° N 18:14:24 76° W 18:17:41 10° S
Cosmos 1300 Rocket 3.7 18:11:36 10° S 18:15:52 52° E 18:20:09 10° NNE
Cosmos 1802 Rocket 4.2 18:10:12 10° S 18:16:36 82° W 18:23:03 10° N
SL-4 R/B 3.3 18:14:28 10° NNW 18:17:06 20° NNE 18:17:58 18° NE
Cosmos 1975 Rocket 3.9 18:15:02 10° NNE 18:18:43 27° ENE 18:20:47 19° ESE
Cosmos 2221 Rocket 3.6 18:14:22 10° N 18:18:53 84° W 18:23:21 10° S
Cosmos 1302 Rocket 4.5 18:14:47 10° NNW 18:19:56 64° WSW 18:25:05 10° S
Landsat 7 4.5 18:15:58 10° S 18:20:31 56° W 18:25:07 10° NNW
Cosmos 2233 Rocket 3.9 18:15:17 10° S 18:21:28 67° E 18:27:44 10° NNE
Cosmos 909 Rocket 4.2 18:16:57 10° NNW 18:23:15 81° WSW 18:29:51 10° SSE
Spot 4 Rocket 4.0 18:18:40 10° SSE 18:23:38 58° ENE 18:28:39 10° N
Resurs 01 Rocket 3.5 18:28:31 14° NNE 18:28:31 14° NNE 18:29:30 10° NNE
BREEZE-M DEB (TANK) 2.5 18:25:23 10° WSW 18:27:32 65° NNW 18:29:30 25° NE
SL-08 R/B 4.5 18:25:58 10° S 18:32:09 85° W 18:38:16 10° N
Delta 2 Rocket 4.3 18:30:30 10° SW 18:34:03 31° S 18:35:15 26° SE
Cosmos 1441 Rocket 2.6 18:31:12 10° N 18:34:32 75° E 18:37:51 10° SSE
USA 281 3.8 18:31:57 23° E 18:35:00 35° NE 18:40:49 10° N
Tsikada Rocket 4.0 18:29:46 10° N 18:36:13 77° E 18:42:35 10° SSE
Cosmos 1992 Rocket 4.0 18:33:35 10° NNW 18:38:48 81° WSW 18:43:57 10° SSE
CZ-4C R/B 2.9 18:35:02 10° WSW 18:38:59 38° NW 18:43:42 11° NNE
Cosmos 2278 Rocket 4.2 18:37:12 10° SE 18:37:32 11° SE 18:37:32 11° SE
Cosmos 2084 Rocket 4.3 18:37:34 10° S 18:40:42 30° SE 18:40:42 30° SE
NOAA 6 4.1 18:37:59 10° SSE 18:43:01 55° ENE 18:48:03 10° N
NOAA 15 4.5 18:38:28 10° SSE 18:43:44 81° ENE 18:49:03 10° NNW
Cosmos 1269 Rocket 3.9 18:40:07 10° S 18:45:17 62° ESE 18:48:29 23° NNE
Aureole 2 4.2 18:42:11 10° SSW 18:45:28 71° ESE 18:45:32 71° E
PSLV R/B 3.3 18:45:50 10° SSE 18:49:55 88° W 18:54:00 10° NNW
SJ-7 4.3 18:47:30 10° S 18:51:12 73° WSW 18:54:54 10° NNW
Resurs 1-3 3.5 18:53:20 10° S 18:57:38 81° WSW 19:01:57 10° NNW
Helios 1A Rocket 3.9 18:57:27 11° N 19:00:26 36° WNW 19:03:32 10° SW
BREEZE-M DEB (TANK) 3.1 19:05:07 10° WSW 19:07:50 70° NNW 19:08:21 62° NNE
Timation 2 Rocket 4.5 19:03:51 10° S 19:09:46 44° ESE 19:09:46 44° ESE
YAOGAN 1 3.3 19:06:31 10° S 19:10:39 52° W 19:14:50 10° NNW
Cosmos 1513 Rocket 4.4 19:08:49 10° S 19:15:02 74° E 19:21:23 10° N
ATLAS CENTAUR R/B 2.8 19:14:15 10° WSW 19:17:16 27° NW 19:17:25 27° NW
Cosmos 1943 Rocket 3.9 19:13:59 10° S 19:15:40 19° SSE 19:15:40 19° SSE
Meteor 2-12 Rocket 4.4 19:16:59 10° N 19:23:08 85° W 19:29:12 10° S
Cosmos 1140 Rocket 4.1 19:30:29 10° SW 19:35:34 54° WNW 19:36:56 42° NNW
Cosmos 1833 Rocket 2.7 19:33:35 10° NNW 19:39:09 75° WSW 19:39:09 75° WSW
SL-12 R/B(2) 4.1 19:34:20 10° SSW 19:42:04 84° ESE 19:44:56 48° NE
Tiangong 1.6 19:47:45 10° W 19:47:46 10° W 19:47:46 10° W
ATLAS 5 CENTAUR R/B 4.0 19:49:56 10° NNW 19:50:43 15° NNW 19:50:43 15° NNW
BREEZE-M DEB (TANK) 4.3 19:44:35 10° WNW 19:55:20 64° NNW 19:55:20 64° NNW
Resurs 01 Rocket 4.3 20:05:56 13° NNW 20:05:56 13° NNW 20:06:31 10° NNW
USA 281 3.9 20:18:51 47° WSW 20:19:16 48° WSW 20:25:36 10° NW
